Location: ????????
(56.1167°N, 38.6333°E)
Time: 20:21:58
(UTC+00:00)

Resurs 01 Rocket - Pass Details

Date: 18 November 2025
Orbit: 626 x 637 km, 97.7° (Epoch: 14 December)

Event Time Altitude Azimuth Distance (km) Brightness Sun altitude
Exits shadow 17:30:19 22° 295° (WNW) 1,417 3.9 -35.2°
Drops below altitude 10° 17:32:41 10° 324° (NW) 2,038 4.8 -35.5°
Sets 17:35:15 0° 338° (NNW) 2,951 5.5 -35.9°
